Year,Month,Day,Hour,Minute,Value (Times are PST for temperature in C)
2010,06,28,00,00,13.60
2010,06,28,00,01,13.60
2010,06,28,00,02,13.60
2010,06,28,00,03,13.60
2010,06,28,00,04,13.60
2010,06,28,00,05,13.60
2010,06,28,00,06,13.60
2010,06,28,00,07,13.60
2010,06,28,00,08,13.60
2010,06,28,00,09,13.60
2010,06,28,00,10,13.60
2010,06,28,00,11,13.60
2010,06,28,00,12,13.60
2010,06,28,00,13,13.60
2010,06,28,00,14,13.60
2010,06,28,00,15,13.50
2010,06,28,00,16,13.50
2010,06,28,00,17,13.50
2010,06,28,00,18,13.50
2010,06,28,00,19,13.50
2010,06,28,00,20,13.50
2010,06,28,00,21,13.40
2010,06,28,00,22,13.40
2010,06,28,00,23,13.40
2010,06,28,00,24,13.40
2010,06,28,00,25,13.40
2010,06,28,00,26,13.40
2010,06,28,00,27,13.40
2010,06,28,00,28,13.30
2010,06,28,00,29,13.30
2010,06,28,00,30,13.30
2010,06,28,00,31,13.30
2010,06,28,00,32,13.30
2010,06,28,00,33,13.30
2010,06,28,00,34,13.30
2010,06,28,00,35,13.30
2010,06,28,00,36,13.30
2010,06,28,00,37,13.30
2010,06,28,00,38,13.30
2010,06,28,00,39,13.30
2010,06,28,00,40,13.30
2010,06,28,00,41,13.30
2010,06,28,00,42,13.30
2010,06,28,00,43,13.30
2010,06,28,00,44,13.30
2010,06,28,00,45,13.20
2010,06,28,00,46,13.20
2010,06,28,00,47,13.20
2010,06,28,00,48,13.20
2010,06,28,00,49,13.20
2010,06,28,00,50,13.10
2010,06,28,00,51,13.10
2010,06,28,00,52,13.10
2010,06,28,00,53,13.10
2010,06,28,00,54,13.00
2010,06,28,00,55,13.00
2010,06,28,00,56,13.00
2010,06,28,00,57,12.90
2010,06,28,00,58,12.90
2010,06,28,00,59,12.90
2010,06,28,01,00,12.80
2010,06,28,01,01,12.80
2010,06,28,01,02,12.80
2010,06,28,01,03,12.80
2010,06,28,01,04,12.80
2010,06,28,01,05,12.80
2010,06,28,01,06,12.70
2010,06,28,01,07,12.70
2010,06,28,01,08,12.70
2010,06,28,01,09,12.70
2010,06,28,01,10,12.70
2010,06,28,01,11,12.70
2010,06,28,01,12,12.70
2010,06,28,01,13,12.70
2010,06,28,01,14,12.70
2010,06,28,01,15,12.60
2010,06,28,01,16,12.60
2010,06,28,01,17,12.60
2010,06,28,01,18,12.60
2010,06,28,01,19,12.60
2010,06,28,01,20,12.60
2010,06,28,01,21,12.60
2010,06,28,01,22,12.60
2010,06,28,01,23,12.60
2010,06,28,01,24,12.50
2010,06,28,01,25,12.50
2010,06,28,01,26,12.50
2010,06,28,01,27,12.50
2010,06,28,01,28,12.50
2010,06,28,01,29,12.50
2010,06,28,01,30,12.50
2010,06,28,01,31,12.40
2010,06,28,01,32,12.40
2010,06,28,01,33,12.40
2010,06,28,01,34,12.40
2010,06,28,01,35,12.40
2010,06,28,01,36,12.40
2010,06,28,01,37,12.40
2010,06,28,01,38,12.40
2010,06,28,01,39,12.30
2010,06,28,01,40,12.30
2010,06,28,01,41,12.30
2010,06,28,01,42,12.30
2010,06,28,01,43,12.30
2010,06,28,01,44,12.30
2010,06,28,01,45,12.30
2010,06,28,01,46,12.30
2010,06,28,01,47,12.30
2010,06,28,01,48,12.30
2010,06,28,01,49,12.30
2010,06,28,01,50,12.30
2010,06,28,01,51,12.30
2010,06,28,01,52,12.30
2010,06,28,01,53,12.30
2010,06,28,01,54,12.30
2010,06,28,01,55,12.30
2010,06,28,01,56,12.20
2010,06,28,01,57,12.20
2010,06,28,01,58,12.20
2010,06,28,01,59,12.20
2010,06,28,02,00,12.20
2010,06,28,02,01,12.20
2010,06,28,02,02,12.20
2010,06,28,02,03,12.20
2010,06,28,02,04,12.20
2010,06,28,02,05,12.20
2010,06,28,02,06,12.20
2010,06,28,02,07,12.20
2010,06,28,02,08,12.20
2010,06,28,02,09,12.20
2010,06,28,02,10,12.20
2010,06,28,02,11,12.20
2010,06,28,02,12,12.20
2010,06,28,02,13,12.10
2010,06,28,02,14,12.10
2010,06,28,02,15,12.10
2010,06,28,02,16,12.10
2010,06,28,02,17,12.10
2010,06,28,02,18,12.10
2010,06,28,02,19,12.10
2010,06,28,02,20,12.10
2010,06,28,02,21,12.10
2010,06,28,02,22,12.10
2010,06,28,02,23,12.10
2010,06,28,02,24,12.10
2010,06,28,02,25,12.10
2010,06,28,02,26,12.10
2010,06,28,02,27,12.10
2010,06,28,02,28,12.10
2010,06,28,02,29,12.10
2010,06,28,02,30,12.10
2010,06,28,02,31,12.10
2010,06,28,02,32,12.10
2010,06,28,02,33,12.10
2010,06,28,02,34,12.10
2010,06,28,02,35,12.10
2010,06,28,02,36,12.10
2010,06,28,02,37,12.10
2010,06,28,02,38,12.10
2010,06,28,02,39,12.10
2010,06,28,02,40,12.10
2010,06,28,02,41,12.10
2010,06,28,02,42,12.10
2010,06,28,02,43,12.10
2010,06,28,02,44,12.10
2010,06,28,02,45,12.10
2010,06,28,02,46,12.10
2010,06,28,02,47,12.10
2010,06,28,02,48,12.10
2010,06,28,02,49,12.10
2010,06,28,02,50,12.10
2010,06,28,02,51,12.10
2010,06,28,02,52,12.10
2010,06,28,02,53,12.10
2010,06,28,02,54,12.10
2010,06,28,02,55,12.10
2010,06,28,02,56,12.10
2010,06,28,02,57,12.10
2010,06,28,02,58,12.10
2010,06,28,02,59,12.10
2010,06,28,03,00,12.10
2010,06,28,03,01,12.10
2010,06,28,03,02,12.10
2010,06,28,03,03,12.10
2010,06,28,03,04,12.00
2010,06,28,03,05,12.10
2010,06,28,03,06,12.10
2010,06,28,03,07,12.00
2010,06,28,03,08,12.00
2010,06,28,03,09,12.00
2010,06,28,03,10,12.00
2010,06,28,03,11,12.00
2010,06,28,03,12,12.00
2010,06,28,03,13,12.00
2010,06,28,03,14,12.00
2010,06,28,03,15,12.00
2010,06,28,03,16,12.00
2010,06,28,03,17,12.00
2010,06,28,03,18,12.00
2010,06,28,03,19,11.90
2010,06,28,03,20,11.90
2010,06,28,03,21,11.90
2010,06,28,03,22,11.90
2010,06,28,03,23,11.90
2010,06,28,03,24,11.90
2010,06,28,03,25,11.90
2010,06,28,03,26,11.90
2010,06,28,03,27,11.90
2010,06,28,03,28,11.90
2010,06,28,03,29,11.90
2010,06,28,03,30,11.90
2010,06,28,03,31,11.90
2010,06,28,03,32,11.90
2010,06,28,03,33,11.90
2010,06,28,03,34,11.90
2010,06,28,03,35,11.90
2010,06,28,03,36,11.80
2010,06,28,03,37,11.80
2010,06,28,03,38,11.80
2010,06,28,03,39,11.80
2010,06,28,03,40,11.80
2010,06,28,03,41,11.80
2010,06,28,03,42,11.80
2010,06,28,03,43,11.80
2010,06,28,03,44,11.80
2010,06,28,03,45,11.80
2010,06,28,03,46,11.80
2010,06,28,03,47,11.80
2010,06,28,03,48,11.80
2010,06,28,03,49,11.80
2010,06,28,03,50,11.80
2010,06,28,03,51,11.80
2010,06,28,03,52,11.80
2010,06,28,03,53,11.80
2010,06,28,03,54,11.80
2010,06,28,03,55,11.80
2010,06,28,03,56,11.80
2010,06,28,03,57,11.80
2010,06,28,03,58,11.80
2010,06,28,03,59,11.80
2010,06,28,04,00,11.80
2010,06,28,04,01,11.80
2010,06,28,04,02,11.80
2010,06,28,04,03,11.80
2010,06,28,04,04,11.80
2010,06,28,04,05,11.80
2010,06,28,04,06,11.80
2010,06,28,04,07,11.80
2010,06,28,04,08,11.80
2010,06,28,04,09,11.80
2010,06,28,04,10,11.80
2010,06,28,04,11,11.80
2010,06,28,04,12,11.80
2010,06,28,04,13,11.80
2010,06,28,04,14,11.80
2010,06,28,04,15,11.80
2010,06,28,04,16,11.80
2010,06,28,04,17,11.80
2010,06,28,04,18,11.80
2010,06,28,04,19,11.80
2010,06,28,04,20,11.80
2010,06,28,04,21,11.80
2010,06,28,04,22,11.80
2010,06,28,04,23,11.80
2010,06,28,04,24,11.80
2010,06,28,04,25,11.80
2010,06,28,04,26,11.80
2010,06,28,04,27,11.80
2010,06,28,04,28,11.80
2010,06,28,04,29,11.80
2010,06,28,04,30,11.80
2010,06,28,04,31,11.80
2010,06,28,04,32,11.80
2010,06,28,04,33,11.80
2010,06,28,04,34,11.80
2010,06,28,04,35,11.80
2010,06,28,04,36,11.80
2010,06,28,04,37,11.80
2010,06,28,04,38,11.80
2010,06,28,04,39,11.80
2010,06,28,04,40,11.80
2010,06,28,04,41,11.80
2010,06,28,04,42,11.80
2010,06,28,04,43,11.80
2010,06,28,04,44,11.80
2010,06,28,04,45,11.80
2010,06,28,04,46,11.80
2010,06,28,04,47,11.80
2010,06,28,04,48,11.80
2010,06,28,04,49,11.80
2010,06,28,04,50,11.80
2010,06,28,04,51,11.80
2010,06,28,04,52,11.80
2010,06,28,04,53,11.80
2010,06,28,04,54,11.80
2010,06,28,04,55,11.80
2010,06,28,04,56,11.80
2010,06,28,04,57,11.80
2010,06,28,04,58,11.80
2010,06,28,04,59,11.80
2010,06,28,05,00,11.80
2010,06,28,05,01,11.80
2010,06,28,05,02,11.80
2010,06,28,05,03,11.80
2010,06,28,05,04,11.80
2010,06,28,05,05,11.80
2010,06,28,05,06,11.80
2010,06,28,05,07,11.80
2010,06,28,05,08,11.80
2010,06,28,05,09,11.80
2010,06,28,05,10,11.80
2010,06,28,05,11,11.80
2010,06,28,05,12,11.80
2010,06,28,05,13,11.80
2010,06,28,05,14,11.80
2010,06,28,05,15,11.80
2010,06,28,05,16,11.70
2010,06,28,05,17,11.70
2010,06,28,05,18,11.70
2010,06,28,05,19,11.70
2010,06,28,05,20,11.70
2010,06,28,05,21,11.70
2010,06,28,05,22,11.70
2010,06,28,05,23,11.70
2010,06,28,05,24,11.70
2010,06,28,05,25,11.70
2010,06,28,05,26,11.70
2010,06,28,05,27,11.70
2010,06,28,05,28,11.70
2010,06,28,05,29,11.70
2010,06,28,05,30,11.70
2010,06,28,05,31,11.60
2010,06,28,05,32,11.60
2010,06,28,05,33,11.60
2010,06,28,05,34,11.60
2010,06,28,05,35,11.60
2010,06,28,05,36,11.60
2010,06,28,05,37,11.60
2010,06,28,05,38,11.60
2010,06,28,05,39,11.60
2010,06,28,05,40,11.60
2010,06,28,05,41,11.60
2010,06,28,05,42,11.60
2010,06,28,05,43,11.60
2010,06,28,05,44,11.60
2010,06,28,05,45,11.60
2010,06,28,05,46,11.60
2010,06,28,05,47,11.60
2010,06,28,05,48,11.60
2010,06,28,05,49,11.60
2010,06,28,05,50,11.60
2010,06,28,05,51,11.60
2010,06,28,05,52,11.60
2010,06,28,05,53,11.60
2010,06,28,05,54,11.60
2010,06,28,05,55,11.60
2010,06,28,05,56,11.60
2010,06,28,05,57,11.60
2010,06,28,05,58,11.60
2010,06,28,05,59,11.60
2010,06,28,06,00,11.60
2010,06,28,06,01,11.60
2010,06,28,06,02,11.60
2010,06,28,06,03,11.60
2010,06,28,06,04,11.70
2010,06,28,06,05,11.70
2010,06,28,06,06,11.70
2010,06,28,06,07,11.70
2010,06,28,06,08,11.70
2010,06,28,06,09,11.70
2010,06,28,06,10,11.70
2010,06,28,06,11,11.70
2010,06,28,06,12,11.70
2010,06,28,06,13,11.70
2010,06,28,06,14,11.70
2010,06,28,06,15,11.70
2010,06,28,06,16,11.70
2010,06,28,06,17,11.70
2010,06,28,06,18,11.70
2010,06,28,06,19,11.80
2010,06,28,06,20,11.80
2010,06,28,06,21,11.80
2010,06,28,06,22,11.80
2010,06,28,06,23,11.80
2010,06,28,06,24,11.80
2010,06,28,06,25,11.80
2010,06,28,06,26,11.80
2010,06,28,06,27,11.90
2010,06,28,06,28,11.90
2010,06,28,06,29,11.90
2010,06,28,06,30,11.90
2010,06,28,06,31,11.90
2010,06,28,06,32,12.00
2010,06,28,06,33,12.00
2010,06,28,06,34,12.10
2010,06,28,06,35,12.10
2010,06,28,06,36,12.10
2010,06,28,06,37,12.20
2010,06,28,06,38,12.20
2010,06,28,06,39,12.20
2010,06,28,06,40,12.30
2010,06,28,06,41,12.30
2010,06,28,06,42,12.30
2010,06,28,06,43,12.40
2010,06,28,06,44,12.40
2010,06,28,06,45,12.40
2010,06,28,06,46,12.50
2010,06,28,06,47,12.50
2010,06,28,06,48,12.50
2010,06,28,06,49,12.60
2010,06,28,06,50,12.60
2010,06,28,06,51,12.70
2010,06,28,06,52,12.70
2010,06,28,06,53,12.80
2010,06,28,06,54,12.80
2010,06,28,06,55,12.80
2010,06,28,06,56,12.90
2010,06,28,06,57,12.90
2010,06,28,06,58,13.00
2010,06,28,06,59,13.00
2010,06,28,07,00,13.00
2010,06,28,07,01,13.10
2010,06,28,07,02,13.10
2010,06,28,07,03,13.10
2010,06,28,07,04,13.10
2010,06,28,07,05,13.10
2010,06,28,07,06,13.10
2010,06,28,07,07,13.10
2010,06,28,07,08,13.20
2010,06,28,07,09,13.20
2010,06,28,07,10,13.20
2010,06,28,07,11,13.20
2010,06,28,07,12,13.20
2010,06,28,07,13,13.20
2010,06,28,07,14,13.20
2010,06,28,07,15,13.20
2010,06,28,07,16,13.20
2010,06,28,07,17,13.20
2010,06,28,07,18,13.30
2010,06,28,07,19,13.20
2010,06,28,07,20,13.30
2010,06,28,07,21,13.30
2010,06,28,07,22,13.30
2010,06,28,07,23,13.30
2010,06,28,07,24,13.30
2010,06,28,07,25,13.30
2010,06,28,07,26,13.30
2010,06,28,07,27,13.30
2010,06,28,07,28,13.30
2010,06,28,07,29,13.30
2010,06,28,07,30,13.30
2010,06,28,07,31,13.40
2010,06,28,07,32,13.40
2010,06,28,07,33,13.40
2010,06,28,07,34,13.40
2010,06,28,07,35,13.40
2010,06,28,07,36,13.50
2010,06,28,07,37,13.50
2010,06,28,07,38,13.50
2010,06,28,07,39,13.60
2010,06,28,07,40,13.60
2010,06,28,07,41,13.60
2010,06,28,07,42,13.70
2010,06,28,07,43,13.70
2010,06,28,07,44,13.70
2010,06,28,07,45,13.80
2010,06,28,07,46,13.80
2010,06,28,07,47,13.80
2010,06,28,07,48,13.80
2010,06,28,07,49,13.90
2010,06,28,07,50,13.90
2010,06,28,07,51,13.90
2010,06,28,07,52,13.90
2010,06,28,07,53,13.90
2010,06,28,07,54,13.90
2010,06,28,07,55,13.90
2010,06,28,07,56,13.90
2010,06,28,07,57,13.90
2010,06,28,07,58,13.90
2010,06,28,07,59,13.90
2010,06,28,08,00,13.90
2010,06,28,08,01,13.90
2010,06,28,08,02,13.90
2010,06,28,08,03,13.90
2010,06,28,08,04,14.00
2010,06,28,08,05,14.10
2010,06,28,08,06,14.10
2010,06,28,08,07,14.20
2010,06,28,08,08,14.30
2010,06,28,08,09,14.30
2010,06,28,08,10,14.30
2010,06,28,08,11,14.40
2010,06,28,08,12,14.40
2010,06,28,08,13,14.40
2010,06,28,08,14,14.40
2010,06,28,08,15,14.40
2010,06,28,08,16,14.40
2010,06,28,08,17,14.50
2010,06,28,08,18,14.40
2010,06,28,08,19,14.50
2010,06,28,08,20,14.50
2010,06,28,08,21,14.50
2010,06,28,08,22,14.50
2010,06,28,08,23,14.50
2010,06,28,08,24,14.40
2010,06,28,08,25,14.40
2010,06,28,08,26,14.40
2010,06,28,08,27,14.40
2010,06,28,08,28,14.50
2010,06,28,08,29,14.60
2010,06,28,08,30,14.60
2010,06,28,08,31,14.60
2010,06,28,08,32,14.70
2010,06,28,08,33,14.70
2010,06,28,08,34,14.70
2010,06,28,08,35,14.80
2010,06,28,08,36,14.80
2010,06,28,08,37,14.80
2010,06,28,08,38,14.90
2010,06,28,08,39,15.00
2010,06,28,08,40,15.00
2010,06,28,08,41,15.00
2010,06,28,08,42,15.00
2010,06,28,08,43,15.00
2010,06,28,08,44,15.00
2010,06,28,08,45,14.90
2010,06,28,08,46,14.80
2010,06,28,08,47,14.80
2010,06,28,08,48,14.80
2010,06,28,08,49,14.80
2010,06,28,08,50,14.70
2010,06,28,08,51,14.80
2010,06,28,08,52,14.80
2010,06,28,08,53,14.80
2010,06,28,08,54,14.80
2010,06,28,08,55,14.90
2010,06,28,08,56,14.90
2010,06,28,08,57,14.90
2010,06,28,08,58,15.00
2010,06,28,08,59,15.10
2010,06,28,09,00,15.10
2010,06,28,09,01,15.10
2010,06,28,09,02,15.10
2010,06,28,09,03,15.20
2010,06,28,09,04,15.20
2010,06,28,09,05,15.20
2010,06,28,09,06,15.20
2010,06,28,09,07,15.20
2010,06,28,09,08,15.10
2010,06,28,09,09,15.10
2010,06,28,09,10,15.10
2010,06,28,09,11,15.10
2010,06,28,09,12,15.10
2010,06,28,09,13,15.10
2010,06,28,09,14,15.10
2010,06,28,09,15,15.10
2010,06,28,09,16,15.10
2010,06,28,09,17,15.10
2010,06,28,09,18,15.10
2010,06,28,09,19,15.00
2010,06,28,09,20,15.00
2010,06,28,09,21,15.00
2010,06,28,09,22,15.00
2010,06,28,09,23,15.00
2010,06,28,09,24,15.10
2010,06,28,09,25,15.10
2010,06,28,09,26,15.10
2010,06,28,09,27,15.20
2010,06,28,09,28,15.20
2010,06,28,09,29,15.20
2010,06,28,09,30,15.30
2010,06,28,09,31,15.30
2010,06,28,09,32,15.30
2010,06,28,09,33,15.30
2010,06,28,09,34,15.30
2010,06,28,09,35,15.30
2010,06,28,09,36,15.40
2010,06,28,09,37,15.40
2010,06,28,09,38,15.40
2010,06,28,09,39,15.40
2010,06,28,09,40,15.40
2010,06,28,09,41,15.40
2010,06,28,09,42,15.30
2010,06,28,09,43,15.20
2010,06,28,09,44,15.20
2010,06,28,09,45,15.20
2010,06,28,09,46,15.20
2010,06,28,09,47,15.20
2010,06,28,09,48,15.20
2010,06,28,09,49,15.20
2010,06,28,09,50,15.30
2010,06,28,09,51,15.30
2010,06,28,09,52,15.40
2010,06,28,09,53,15.40
2010,06,28,09,54,15.30
2010,06,28,09,55,15.30
2010,06,28,09,56,15.30
2010,06,28,09,57,15.30
2010,06,28,09,58,15.30
2010,06,28,09,59,15.30
2010,06,28,10,00,15.20
2010,06,28,10,01,15.20
2010,06,28,10,02,15.10
2010,06,28,10,03,15.10
2010,06,28,10,04,15.00
2010,06,28,10,05,14.90
2010,06,28,10,06,14.90
2010,06,28,10,07,14.90
2010,06,28,10,08,14.90
2010,06,28,10,09,14.90
2010,06,28,10,10,14.90
2010,06,28,10,11,14.90
2010,06,28,10,12,14.90
2010,06,28,10,13,15.00
2010,06,28,10,14,15.00
2010,06,28,10,15,15.10
2010,06,28,10,16,15.10
2010,06,28,10,17,15.10
2010,06,28,10,18,15.10
2010,06,28,10,19,15.20
2010,06,28,10,20,15.20
2010,06,28,10,21,15.20
2010,06,28,10,22,15.20
2010,06,28,10,23,15.30
2010,06,28,10,24,15.30
2010,06,28,10,25,15.30
2010,06,28,10,26,15.40
2010,06,28,10,27,15.40
2010,06,28,10,28,15.40
2010,06,28,10,29,15.40
2010,06,28,10,30,15.40
2010,06,28,10,31,15.40
2010,06,28,10,32,15.40
2010,06,28,10,33,15.40
2010,06,28,10,34,15.40
2010,06,28,10,35,15.40
2010,06,28,10,36,15.40
2010,06,28,10,37,15.40
2010,06,28,10,38,15.40
2010,06,28,10,39,15.40
2010,06,28,10,40,15.40
2010,06,28,10,41,15.40
2010,06,28,10,42,15.30
2010,06,28,10,43,15.30
2010,06,28,10,44,15.30
2010,06,28,10,45,15.30
2010,06,28,10,46,15.30
2010,06,28,10,47,15.30
2010,06,28,10,48,15.40
2010,06,28,10,49,15.40
2010,06,28,10,50,15.50
2010,06,28,10,51,15.60
2010,06,28,10,52,15.60
2010,06,28,10,53,15.60
2010,06,28,10,54,15.50
2010,06,28,10,55,15.50
2010,06,28,10,56,15.40
2010,06,28,10,57,15.40
2010,06,28,10,58,15.40
2010,06,28,10,59,15.40
2010,06,28,11,00,15.40
2010,06,28,11,01,15.40
2010,06,28,11,02,15.50
2010,06,28,11,03,15.50
2010,06,28,11,04,15.40
2010,06,28,11,05,15.30
2010,06,28,11,06,15.30
2010,06,28,11,07,15.20
2010,06,28,11,08,15.20
2010,06,28,11,09,15.10
2010,06,28,11,10,15.00
2010,06,28,11,11,14.90
2010,06,28,11,12,14.80
2010,06,28,11,13,14.70
2010,06,28,11,14,14.70
2010,06,28,11,15,14.60
2010,06,28,11,16,14.60
2010,06,28,11,17,14.60
2010,06,28,11,18,14.70
2010,06,28,11,19,14.70
2010,06,28,11,20,14.80
2010,06,28,11,21,14.80
2010,06,28,11,22,14.80
2010,06,28,11,23,14.90
2010,06,28,11,24,15.00
2010,06,28,11,25,15.00
2010,06,28,11,26,15.00
2010,06,28,11,27,15.10
2010,06,28,11,28,15.10
2010,06,28,11,29,15.20
2010,06,28,11,30,15.10
2010,06,28,11,31,15.10
2010,06,28,11,32,15.10
2010,06,28,11,33,15.10
2010,06,28,11,34,15.10
2010,06,28,11,35,15.20
2010,06,28,11,36,15.10
2010,06,28,11,37,15.10
2010,06,28,11,38,15.00
2010,06,28,11,39,14.90
2010,06,28,11,40,14.90
2010,06,28,11,41,14.90
2010,06,28,11,42,14.90
2010,06,28,11,43,14.90
2010,06,28,11,44,14.90
2010,06,28,11,45,14.90
2010,06,28,11,46,14.90
2010,06,28,11,47,15.00
2010,06,28,11,48,15.00
2010,06,28,11,49,15.00
2010,06,28,11,50,15.00
2010,06,28,11,51,15.00
2010,06,28,11,52,15.10
2010,06,28,11,53,15.10
2010,06,28,11,54,15.20
2010,06,28,11,55,15.30
2010,06,28,11,56,15.30
2010,06,28,11,57,15.30
2010,06,28,11,58,15.20
2010,06,28,11,59,15.20
2010,06,28,12,00,15.10
2010,06,28,12,01,15.10
2010,06,28,12,02,15.20
2010,06,28,12,03,15.20
2010,06,28,12,04,15.30
2010,06,28,12,05,15.40
2010,06,28,12,06,15.50
2010,06,28,12,07,15.60
2010,06,28,12,08,15.70
2010,06,28,12,09,15.80
2010,06,28,12,10,15.80
2010,06,28,12,11,15.80
2010,06,28,12,12,15.80
2010,06,28,12,13,15.80
2010,06,28,12,14,15.80
2010,06,28,12,15,15.80
2010,06,28,12,16,15.80
2010,06,28,12,17,15.80
2010,06,28,12,18,15.80
2010,06,28,12,19,15.80
2010,06,28,12,20,15.80
2010,06,28,12,21,15.80
2010,06,28,12,22,15.80
2010,06,28,12,23,15.80
2010,06,28,12,24,15.80
2010,06,28,12,25,15.80
2010,06,28,12,26,15.80
2010,06,28,12,27,15.80
2010,06,28,12,28,15.80
2010,06,28,12,29,15.90
2010,06,28,12,30,15.90
2010,06,28,12,31,15.90
2010,06,28,12,32,16.00
2010,06,28,12,33,16.00
2010,06,28,12,34,16.00
2010,06,28,12,35,16.00
2010,06,28,12,36,16.00
2010,06,28,12,37,15.90
2010,06,28,12,38,15.90
2010,06,28,12,39,16.00
2010,06,28,12,40,16.00
2010,06,28,12,41,16.10
2010,06,28,12,42,16.10
2010,06,28,12,43,16.20
2010,06,28,12,44,16.20
2010,06,28,12,45,16.20
2010,06,28,12,46,16.20
2010,06,28,12,47,16.20
2010,06,28,12,48,16.10
2010,06,28,12,49,16.00
2010,06,28,12,50,15.80
2010,06,28,12,51,15.70
2010,06,28,12,52,15.50
2010,06,28,12,53,15.40
2010,06,28,12,54,15.30
2010,06,28,12,55,15.30
2010,06,28,12,56,15.20
2010,06,28,12,57,15.20
2010,06,28,12,58,15.20
2010,06,28,12,59,15.20
2010,06,28,13,00,15.20
2010,06,28,13,01,15.10
2010,06,28,13,02,15.10
2010,06,28,13,03,15.10
2010,06,28,13,04,15.00
2010,06,28,13,05,15.00
2010,06,28,13,06,15.00
2010,06,28,13,07,14.90
2010,06,28,13,08,14.90
2010,06,28,13,09,14.90
2010,06,28,13,10,14.90
2010,06,28,13,11,14.90
2010,06,28,13,12,14.80
2010,06,28,13,13,14.80
2010,06,28,13,14,14.80
2010,06,28,13,15,14.70
2010,06,28,13,16,14.70
2010,06,28,13,17,14.70
2010,06,28,13,18,14.70
2010,06,28,13,19,14.70
2010,06,28,13,20,14.80
2010,06,28,13,21,14.70
2010,06,28,13,22,14.70
2010,06,28,13,23,14.70
2010,06,28,13,24,14.60
2010,06,28,13,25,14.60
2010,06,28,13,26,14.60
2010,06,28,13,27,14.50
2010,06,28,13,28,14.50
2010,06,28,13,29,14.50
2010,06,28,13,30,14.50
2010,06,28,13,31,14.50
2010,06,28,13,32,14.50
2010,06,28,13,33,14.50
2010,06,28,13,34,14.50
2010,06,28,13,35,14.60
2010,06,28,13,36,14.50
2010,06,28,13,37,14.50
2010,06,28,13,38,14.60
2010,06,28,13,39,14.60
2010,06,28,13,40,14.60
2010,06,28,13,41,14.60
2010,06,28,13,42,14.70
2010,06,28,13,43,14.70
2010,06,28,13,44,14.60
2010,06,28,13,45,14.60
2010,06,28,13,46,14.70
2010,06,28,13,47,14.70
2010,06,28,13,48,14.70
2010,06,28,13,49,14.70
2010,06,28,13,50,14.70
2010,06,28,13,51,14.70
2010,06,28,13,52,14.70
2010,06,28,13,53,14.80
2010,06,28,13,54,14.80
2010,06,28,13,55,14.90
2010,06,28,13,56,14.90
2010,06,28,13,57,14.90
2010,06,28,13,58,14.90
2010,06,28,13,59,15.00
2010,06,28,14,00,15.00
2010,06,28,14,01,15.10
2010,06,28,14,02,15.20
2010,06,28,14,03,15.30
2010,06,28,14,04,15.40
2010,06,28,14,05,15.60
2010,06,28,14,06,15.60
2010,06,28,14,07,15.70
2010,06,28,14,08,15.80
2010,06,28,14,09,15.80
2010,06,28,14,10,15.80
2010,06,28,14,11,15.90
2010,06,28,14,12,15.90
2010,06,28,14,13,15.90
2010,06,28,14,14,16.00
2010,06,28,14,15,16.00
2010,06,28,14,16,16.00
2010,06,28,14,17,16.10
2010,06,28,14,18,16.10
2010,06,28,14,19,16.10
2010,06,28,14,20,16.20
2010,06,28,14,21,16.20
2010,06,28,14,22,16.20
2010,06,28,14,23,16.30
2010,06,28,14,24,16.30
2010,06,28,14,25,16.30
2010,06,28,14,26,16.40
2010,06,28,14,27,16.40
2010,06,28,14,28,16.40
2010,06,28,14,29,16.40
2010,06,28,14,30,16.50
2010,06,28,14,31,16.50
2010,06,28,14,32,16.50
2010,06,28,14,33,16.60
2010,06,28,14,34,16.70
2010,06,28,14,35,16.80
2010,06,28,14,36,16.90
2010,06,28,14,37,17.00
2010,06,28,14,38,17.00
2010,06,28,14,39,17.00
2010,06,28,14,40,17.00
2010,06,28,14,41,17.10
2010,06,28,14,42,17.10
2010,06,28,14,43,17.10
2010,06,28,14,44,17.10
2010,06,28,14,45,17.10
2010,06,28,14,46,17.10
2010,06,28,14,47,17.00
2010,06,28,14,48,16.90
2010,06,28,14,49,16.80
2010,06,28,14,50,16.80
2010,06,28,14,51,16.80
2010,06,28,14,52,16.80
2010,06,28,14,53,16.80
2010,06,28,14,54,16.90
2010,06,28,14,55,16.80
2010,06,28,14,56,16.80
2010,06,28,14,57,16.70
2010,06,28,14,58,16.70
2010,06,28,14,59,16.70
2010,06,28,15,00,16.80
2010,06,28,15,01,16.80
2010,06,28,15,02,16.80
2010,06,28,15,03,16.80
2010,06,28,15,04,16.70
2010,06,28,15,05,16.70
2010,06,28,15,06,16.70
2010,06,28,15,07,16.70
2010,06,28,15,08,16.70
2010,06,28,15,09,16.70
2010,06,28,15,10,16.70
2010,06,28,15,11,16.60
2010,06,28,15,12,16.60
2010,06,28,15,13,16.60
2010,06,28,15,14,16.60
2010,06,28,15,15,16.70
2010,06,28,15,16,16.80
2010,06,28,15,17,16.80
2010,06,28,15,18,16.90
2010,06,28,15,19,16.90
2010,06,28,15,20,16.90
2010,06,28,15,21,16.90
2010,06,28,15,22,17.00
2010,06,28,15,23,17.00
2010,06,28,15,24,17.00
2010,06,28,15,25,16.90
2010,06,28,15,26,16.90
2010,06,28,15,27,16.80
2010,06,28,15,28,16.70
2010,06,28,15,29,16.60
2010,06,28,15,30,16.50
2010,06,28,15,31,16.40
2010,06,28,15,32,16.30
2010,06,28,15,33,16.10
2010,06,28,15,34,16.00
2010,06,28,15,35,15.90
2010,06,28,15,36,15.90
2010,06,28,15,37,15.90
2010,06,28,15,38,15.90
2010,06,28,15,39,15.90
2010,06,28,15,40,15.90
2010,06,28,15,41,15.90
2010,06,28,15,42,16.00
2010,06,28,15,43,16.10
2010,06,28,15,44,16.10
2010,06,28,15,45,16.20
2010,06,28,15,46,16.30
2010,06,28,15,47,16.30
2010,06,28,15,48,16.40
2010,06,28,15,49,16.40
2010,06,28,15,50,16.40
2010,06,28,15,51,16.40
2010,06,28,15,52,16.40
2010,06,28,15,53,16.50
2010,06,28,15,54,16.50
2010,06,28,15,55,16.50
2010,06,28,15,56,16.50
2010,06,28,15,57,16.50
2010,06,28,15,58,16.50
2010,06,28,15,59,16.60
2010,06,28,16,00,16.70
2010,06,28,16,01,16.80
2010,06,28,16,02,16.90
2010,06,28,16,03,16.90
2010,06,28,16,04,16.80
2010,06,28,16,05,16.80
2010,06,28,16,06,16.70
2010,06,28,16,07,16.70
2010,06,28,16,08,16.70
2010,06,28,16,09,16.70
2010,06,28,16,10,16.60
2010,06,28,16,11,16.60
2010,06,28,16,12,16.60
2010,06,28,16,13,16.60
2010,06,28,16,14,16.60
2010,06,28,16,15,16.60
2010,06,28,16,16,16.70
2010,06,28,16,17,16.70
2010,06,28,16,18,16.80
2010,06,28,16,19,16.80
2010,06,28,16,20,16.80
2010,06,28,16,21,16.80
2010,06,28,16,22,16.80
2010,06,28,16,23,16.70
2010,06,28,16,24,16.60
2010,06,28,16,25,16.60
2010,06,28,16,26,16.60
2010,06,28,16,27,16.60
2010,06,28,16,28,16.70
2010,06,28,16,29,16.70
2010,06,28,16,30,16.80
2010,06,28,16,31,16.80
2010,06,28,16,32,16.80
2010,06,28,16,33,16.80
2010,06,28,16,34,16.80
2010,06,28,16,35,16.80
2010,06,28,16,36,16.70
2010,06,28,16,37,16.70
2010,06,28,16,38,16.70
2010,06,28,16,39,16.60
2010,06,28,16,40,16.50
2010,06,28,16,41,16.50
2010,06,28,16,42,16.50
2010,06,28,16,43,16.50
2010,06,28,16,44,16.40
2010,06,28,16,45,16.40
2010,06,28,16,46,16.40
2010,06,28,16,47,16.30
2010,06,28,16,48,16.30
2010,06,28,16,49,16.30
2010,06,28,16,50,16.30
2010,06,28,16,51,16.40
2010,06,28,16,52,16.40
2010,06,28,16,53,16.50
2010,06,28,16,54,16.60
2010,06,28,16,55,16.60
2010,06,28,16,56,16.70
2010,06,28,16,57,16.70
2010,06,28,16,58,16.70
2010,06,28,16,59,16.70
2010,06,28,17,00,16.70
2010,06,28,17,01,16.70
2010,06,28,17,02,16.70
2010,06,28,17,03,16.70
2010,06,28,17,04,16.80
2010,06,28,17,05,16.80
2010,06,28,17,06,16.90
2010,06,28,17,07,16.90
2010,06,28,17,08,16.90
2010,06,28,17,09,17.00
2010,06,28,17,10,17.10
2010,06,28,17,11,17.10
2010,06,28,17,12,17.10
2010,06,28,17,13,17.00
2010,06,28,17,14,17.00
2010,06,28,17,15,17.00
2010,06,28,17,16,16.90
2010,06,28,17,17,16.80
2010,06,28,17,18,16.70
2010,06,28,17,19,16.70